Waukesha, WI

1:44 PM CST on January 24, 2017 (GMT -0600)
Waukesha County

Weather History for KUES - March, 2013

Change the Weather History Date:

Wednesday, March 6, 2013

  Actual Average Record
Temperature  
Mean Temperature 27 °F -  
Max Temperature 30 °F 39 °F 66 °F (1983)
Min Temperature 24 °F 21 °F -6 °F (1960)
Degree Days  
Heating Degree Days 38    
Moisture  
Dew Point 23 °F    
Average Humidity 85    
Maximum Humidity 93    
Minimum Humidity 80    
Precipitation  
Precipitation 0.00 in - - ()
Sea Level Pressure  
Sea Level Pressure 30.20 in    
Wind  
Wind Speed 11 mph (NW)    
Max Wind Speed 15 mph    
Max Gust Speed 22 mph    
Visibility 9 miles    
Events      
Averages and records for this station are not official NWS values.
T = Trace of Precipitation, MM = Missing Value Source: NWS Daily Summary

Daily Weather History Graph

Daily Weather History Graph

Search for Another Location

Airport or City:

Trip Planner

Search our weather history database for the weather conditions in past years. The results will help you decide how hot, cold, wet, or windy it might be!

Date:

Astronomy

Mar. 06, 2013 Rise Set
Actual Time 6:20 AM CST 5:48 PM CST
Civil Twilight 5:51 AM CST 6:17 PM CST
Nautical Twilight 5:18 AM CST 6:50 PM CST
Astronomical Twilight 4:45 AM CST 7:23 PM CST
Moon 2:35 AM CST (3/6) 12:24 PM CST (3/6)
Length of Visible Light 12h 25m
Length of Day
11h 28m
Waning Crescent, 29% of the Moon is Illuminated
Mar 6
Waning Crescent
Mar 11
New
Mar 19
First Quarter
Mar 27
Full
Apr 2
Last Quarter

Hourly Weather History & Observations

Time (CST) Temp. Windchill Dew Point Humidity Pressure Visibility Wind Dir Wind Speed Gust Speed Precip Events Conditions
12:15 AM 26.6 °F 16.8 °F 23.0 °F 86% 30.04 in 10.0 mi North 10.4 mph - N/A   Overcast
12:35 AM 26.6 °F 15.7 °F 23.0 °F 86% 30.04 in 10.0 mi NNW 12.7 mph - N/A   Overcast
12:55 AM 26.6 °F 15.2 °F 23.0 °F 86% 30.06 in 10.0 mi NNW 13.8 mph 17.3 mph N/A   Overcast
1:15 AM 26.6 °F 15.2 °F 23.0 °F 86% 30.07 in 10.0 mi NNW 13.8 mph - N/A   Overcast
1:35 AM 26.6 °F 15.2 °F 23.0 °F 86% 30.08 in 10.0 mi NNW 13.8 mph - N/A   Overcast
1:55 AM 26.6 °F 16.8 °F 23.0 °F 86% 30.08 in 7.0 mi NW 10.4 mph - N/A   Overcast
2:15 AM 24.8 °F 12.9 °F 21.2 °F 86% 30.08 in 7.0 mi NW 13.8 mph 19.6 mph N/A   Overcast
2:35 AM 24.8 °F 12.4 °F 21.2 °F 86% 30.09 in 7.0 mi NW 15.0 mph 18.4 mph N/A   Overcast
2:55 AM 24.8 °F 14.0 °F 21.2 °F 86% 30.09 in 7.0 mi NW 11.5 mph 18.4 mph N/A   Overcast
3:15 AM 24.8 °F 12.9 °F 21.2 °F 86% 30.10 in 7.0 mi NW 13.8 mph - N/A   Overcast
3:35 AM 24.8 °F 12.9 °F 21.2 °F 86% 30.11 in 10.0 mi NW 13.8 mph - N/A   Overcast
3:55 AM 24.8 °F 12.9 °F 21.2 °F 86% 30.11 in 10.0 mi NNW 13.8 mph 21.9 mph N/A   Overcast
4:15 AM 24.8 °F 13.4 °F 23.0 °F 93% 30.13 in 10.0 mi NNW 12.7 mph 18.4 mph N/A   Overcast
4:35 AM 26.6 °F 14.7 °F 23.0 °F 86% 30.13 in 10.0 mi NNW 15.0 mph - N/A   Overcast
5:45 AM 24.8 °F 12.9 °F 21.2 °F 86% 30.15 in 10.0 mi NNW 13.8 mph - N/A   Overcast
6:45 AM 24.8 °F 14.0 °F 21.2 °F 86% 30.16 in 10.0 mi NW 11.5 mph - N/A   Overcast
7:45 AM 26.6 °F 16.2 °F 23.0 °F 86% 30.19 in 2.5 mi NW 11.5 mph - N/A   Overcast
8:45 AM 26.6 °F 15.2 °F 23.0 °F 86% 30.22 in 2.0 mi NW 13.8 mph - N/A   Overcast
9:10 AM 26.6 °F 16.2 °F 23.0 °F 86% 30.22 in 10.0 mi NW 11.5 mph - N/A   Overcast
9:45 AM 26.6 °F 15.2 °F 24.8 °F 93% 30.23 in 10.0 mi NW 13.8 mph - N/A   Overcast
10:46 AM 28.4 °F 18.5 °F 24.8 °F 86% 30.23 in 10.0 mi NW 11.5 mph - N/A   Overcast
11:45 AM 30.2 °F 21.3 °F 24.8 °F 80% 30.23 in 10.0 mi NW 10.4 mph - N/A   Overcast
12:45 PM 30.2 °F 20.8 °F 24.8 °F 80% 30.23 in 10.0 mi WNW 11.5 mph - N/A   Overcast
1:45 PM 30.2 °F 19.8 °F 24.8 °F 80% 30.22 in 10.0 mi NW 13.8 mph - N/A   Overcast
2:45 PM 30.2 °F 21.3 °F 24.8 °F 80% 30.23 in 10.0 mi NW 10.4 mph - N/A   Overcast
3:45 PM 30.2 °F 21.3 °F 24.8 °F 80% 30.24 in 10.0 mi WNW 10.4 mph - N/A   Overcast
4:45 PM 30.2 °F 21.9 °F 24.8 °F 80% 30.25 in 10.0 mi WNW 9.2 mph - N/A   Overcast
5:45 PM 28.4 °F 20.4 °F 24.8 °F 86% 30.27 in 10.0 mi WNW 8.1 mph - N/A   Mostly Cloudy
6:45 PM 28.4 °F 21.2 °F 24.8 °F 86% 30.27 in 10.0 mi NW 6.9 mph - N/A   Overcast
7:45 PM 28.4 °F 22.2 °F 24.8 °F 86% 30.28 in 10.0 mi WNW 5.8 mph - N/A   Overcast
8:15 PM 28.4 °F 24.6 °F 24.8 °F 86% 30.28 in 10.0 mi WNW 3.5 mph - N/A   Overcast
8:35 PM 28.4 °F 22.2 °F 24.8 °F 86% 30.28 in 10.0 mi WNW 5.8 mph - N/A   Overcast
8:45 PM 28.4 °F 21.2 °F 24.8 °F 86% 30.28 in 10.0 mi WNW 6.9 mph - N/A   Overcast
8:55 PM 28.4 °F 21.2 °F 24.8 °F 86% 30.28 in 10.0 mi WNW 6.9 mph - N/A   Overcast
9:35 PM 28.4 °F 21.2 °F 24.8 °F 86% 30.29 in 5.0 mi WNW 6.9 mph - N/A   Overcast
9:55 PM 28.4 °F 20.4 °F 24.8 °F 86% 30.29 in 10.0 mi WNW 8.1 mph - N/A   Overcast
10:15 PM 28.4 °F 19.7 °F 24.8 °F 86% 30.29 in 10.0 mi WNW 9.2 mph - N/A   Overcast
10:35 PM 28.4 °F 19.7 °F 23.0 °F 80% 30.29 in 10.0 mi NW 9.2 mph - N/A   Overcast
10:55 PM 28.4 °F 22.2 °F 23.0 °F 80% 30.29 in 10.0 mi WNW 5.8 mph - N/A   Overcast
11:15 PM 28.4 °F 20.4 °F 23.0 °F 80% 30.29 in 10.0 mi WNW 8.1 mph - N/A   Overcast
11:35 PM 28.4 °F 20.4 °F 23.0 °F 80% 30.28 in 10.0 mi WNW 8.1 mph - N/A   Overcast
11:55 PM 28.4 °F 21.2 °F 23.0 °F 80% 30.28 in 10.0 mi WNW 6.9 mph - N/A   Overcast